TimeMDT,TemperatureF,Dew PointF,Humidity,Sea Level PressureIn,VisibilityMPH,Wind Direction,Wind SpeedMPH,Gust SpeedMPH,PrecipitationIn,Events,Conditions,WindDirDegrees,DateUTC
12:58 AM,86.0,47.3,26,29.89,10.0,North,5.8,-,N/A,,Overcast,10,2013-06-29 06:58:00
1:58 AM,80.6,50.2,35,29.89,10.0,ENE,4.6,-,N/A,,Scattered Clouds,60,2013-06-29 07:58:00
2:58 AM,80.6,48.0,32,29.86,10.0,NNW,8.1,-,N/A,,Clear,330,2013-06-29 08:58:00
3:58 AM,75.0,47.8,38,29.88,10.0,East,4.6,-,N/A,,Clear,100,2013-06-29 09:58:00
4:58 AM,72.5,48.6,43,29.90,10.0,WNW,5.8,-,N/A,,Clear,290,2013-06-29 10:58:00
5:58 AM,73.4,48.2,41,29.92,10.0,ENE,2.3,-,N/A,,Mostly Cloudy,60,2013-06-29 11:58:00
6:58 AM,74.5,50.2,42,29.90,10.0,North,10.4,-,N/A,,Partly Cloudy,10,2013-06-29 12:58:00
7:58 AM,77.4,53.2,43,29.92,10.0,West,3.5,-,N/A,,Mostly Cloudy,260,2013-06-29 13:58:00
8:58 AM,83.8,50.7,32,29.91,10.0,ESE,4.6,-,N/A,,Mostly Cloudy,120,2013-06-29 14:58:00
9:58 AM,83.3,53.6,36,29.93,10.0,SSW,4.6,-,N/A,,Mostly Cloudy,210,2013-06-29 15:58:00
10:58 AM,89.1,50.4,26,29.90,10.0,SE,9.2,-,N/A,,Partly Cloudy,130,2013-06-29 16:58:00
11:58 AM,94.6,43.5,17,29.88,10.0,ESE,10.4,19.6,N/A,,Scattered Clouds,110,2013-06-29 17:58:00
12:58 PM,98.8,43.2,15,29.85,10.0,ESE,15.0,-,N/A,,Scattered Clouds,110,2013-06-29 18:58:00
1:58 PM,100.9,41.2,13,29.84,10.0,Variable,4.6,-,N/A,,Clear,0,2013-06-29 19:58:00
2:58 PM,102.0,39.7,12,29.81,10.0,Variable,2.3,-,N/A,,Clear,0,2013-06-29 20:58:00
3:58 PM,103.6,38.1,11,29.78,10.0,WNW,8.1,-,N/A,,Clear,290,2013-06-29 21:58:00
4:25 PM,105.8,39.2,10,29.88,10.0,West,11.5,19.6,N/A,,Partly Cloudy,270,2013-06-29 22:25:00
4:58 PM,104.5,38.5,10,29.76,10.0,Variable,4.6,-,N/A,,Clear,0,2013-06-29 22:58:00
5:43 PM,105.8,44.6,13,29.87,10.0,North,13.8,19.6,N/A,,Clear,10,2013-06-29 23:43:00
5:50 PM,105.8,42.8,12,29.86,10.0,North,16.1,23.0,N/A,,Partly Cloudy,350,2013-06-29 23:50:00
5:51 PM,105.8,42.8,12,29.86,10.0,NW,15.0,23.0,N/A,,Partly Cloudy,310,2013-06-29 23:51:00
5:52 PM,105.8,42.8,12,29.86,10.0,WNW,13.8,23.0,N/A,,Partly Cloudy,300,2013-06-29 23:52:00
5:58 PM,106.2,42.1,11,29.75,10.0,NW,18.4,23.0,N/A,,Partly Cloudy,310,2013-06-29 23:58:00
6:14 PM,105.8,41.0,11,29.88,10.0,West,12.7,21.9,N/A,,Mostly Cloudy,280,2013-06-30 00:14:00
6:17 PM,104.0,41.0,12,29.90,10.0,WSW,18.4,28.8,N/A,,Mostly Cloudy,240,2013-06-30 00:17:00
6:58 PM,97.5,48.4,19,29.78,10.0,WSW,11.5,-,N/A,,Mostly Cloudy,250,2013-06-30 00:58:00
7:58 PM,101.8,45.0,14,29.76,10.0,NW,6.9,-,N/A,,Clear,310,2013-06-30 01:58:00
8:58 PM,99.5,46.6,17,29.75,10.0,NNW,13.8,-,N/A,,Clear,340,2013-06-30 02:58:00
9:58 PM,94.5,48.2,21,29.79,10.0,NNW,9.2,-,N/A,,Clear,340,2013-06-30 03:58:00
10:58 PM,85.6,49.3,28,29.83,10.0,Variable,3.5,-,N/A,,Clear,0,2013-06-30 04:58:00
11:58 PM,87.6,55.0,33,29.84,10.0,NNW,12.7,-,N/A,,Clear,330,2013-06-30 05:58:00